Weather Roundup
Issued by NWS Springfield, MO

Home | Current Version | Previous Version | Text Only | Print | Product List | Glossary On
Versions: 1 2 3 4 5 6 7 8 9 10 11 12 13 14 15 16 17 18 19 20 21 22 23 24 25 26 27 28 29 30 31 32 33 34 35 36 37 38 39 40 41 42 43 44 45 46 47 48 49 50
000
NZUS99 KSGF 130507
HRRSGF

HOURLY WEATHER
NATIONAL WEATHER SERVICE SPRINGFIELD MO
1200 AM CDT SUN JUL 13 2014

......SGF CWA......

CITY           SKY/WX    TMP DP  RH WIND       PRES   REMARKS
SPRINGFIELD    CLEAR     75  68  78 S8        30.08F
JOPLIN         CLEAR     80  65  59 S10       30.06S
WEST PLAINS    CLEAR     76  71  85 S3        30.12R
ROLLA          CLEAR     77  69  76 S9        30.03F
OSAGE BEACH    CLEAR     79  70  73 S6        30.03F
BRANSON        CLEAR     75  66  73 S5        30.12S

......SURROUNDING SGF CWA......

CITY           SKY/WX    TMP DP  RH WIND       PRES   REMARKS
CHANUTE        CLEAR     78  66  66 S9        30.03S
PARSONS        CLEAR     77  66  68 S6        30.05S
COFFEYVILLE    CLEAR     77  66  68 S7        30.03S
EMPORIA        CLEAR     76  69  79 S13       29.99F
GROVE OK       CLEAR     77  68  73 S5        30.08S
ROGERS AR      CLEAR     75  66  73 SE5       30.12F
SILOAM SPRINGS CLEAR     75  63  64 S3        30.11F
HARRISON AR    CLEAR     76  67  73 CALM      30.12S
NEAR YELLVILLE CLEAR     77  68  73 S3        30.09S

......KANSAS AND MISSOURI......

CITY           SKY/WX    TMP DP  RH WIND       PRES   REMARKS
KANSAS CTY INT CLEAR     83  68  60 S16G26    29.95F
DOWNTOWN KC    CLEAR     85  68  56 S15G24    29.94F
COLUMBIA       CLEAR     80  70  71 SW13      30.00F
SEDALIA        CLEAR     81  70  69 S10       30.00F
ST JOSEPH      MOCLDY    79  70  74 W6        29.95R
ST LOUIS       MOCLDY    86  70  58 SW12      30.00F HX  90
SPIRIT OF STL  PTCLDY    83  69  62 SW8       29.98F
KIRKSVILLE     MOCLDY    80  71  74 SW8       29.95F
WICHITA        PTCLDY    75  61  61 S9        30.02R
TOPEKA         PTCLDY    84  69  60 S12G22    29.95F
OLATHE         CLEAR     80  68  66 SW14G23   29.98F

......TENNESSEE......

CITY           SKY/WX    TMP DP  RH WIND       PRES   REMARKS
MEMPHIS        PTCLDY    80  71  74 S3        30.10R
NASHVILLE      PTCLDY    76  69  79 S3        30.10S

......ARKANSAS.......

CITY           SKY/WX    TMP DP  RH WIND       PRES   REMARKS
FAYETTEVILLE   CLEAR     71  68  90 SW3       30.12R
FT SMITH       CLEAR     82  71  69 CALM      30.07R
LITTLE ROCK    CLEAR     80  73  79 S5        30.09R

......OKLAHOMA.......

CITY           SKY/WX    TMP DP  RH WIND       PRES   REMARKS
TULSA          CLEAR     83  62  49 S10       30.03S
PONCA CITY     CLEAR     82  58  43 S8        30.03R
MCALESTER      CLEAR     76  69  79 E3        30.08S
OKLAHOMA CITY  CLEAR     73  59  61 SE6       30.07R

......IOWA............

CITY           SKY/WX    TMP DP  RH WIND       PRES   REMARKS
DES MOINES     PTCLDY    71  66  84 N3        29.99R
QUAD CITIES    CLOUDY    72  70  94 W9        29.92S

......ILLINOIS........

CITY           SKY/WX    TMP DP  RH WIND       PRES   REMARKS
QUINCY         CLOUDY    81  69  67 SW12      29.92F
CHICAGO        RAIN      72  66  81 W18G31    29.89R




USA.gov is the U.S. government's official web portal to all federal, state and local government web resources and services.